Regional Weather Roundup
Issued by NWS Goodland, KS

Home | Current Version | Previous Version | Text Only | Print | Product List | Glossary On
Versions: 1 2 3 4 5 6 7 8 9 10 11 12 13 14 15 16 17 18 19 20 21 22 23 24 25 26 27 28 29 30 31 32 33 34 35 36 37 38 39 40 41 42 43 44 45 46 47 48 49 50
000
ASUS43 KGLD 201959
RWRGLD

GOODLAND FORECAST AREA HOURLY WEATHER ROUNDUP
NATIONAL WEATHER SERVICE GOODLAND KS
200 PM MDT SUN MAY 20 2018

...OFFICIAL OBSERVATIONS...

CITY           SKY/WX    TMP DP  RH WIND       PRES   REMARKS
GOODLAND KS    CLOUDY    60  46  59 NE10      30.17F
HILL CITY KS   CLOUDY    59  53  80 N9        30.15S
IMPERIAL NEB   CLOUDY    57  45  64 NE8       30.18F
MCCOOK NEB     CLOUDY    60  47  61 N10       30.15F
AKRON CO       CLOUDY    56  44  64 E8        30.18F
BURLINGTON CO  PTSUNNY   63  44  50 NE7       30.18F
LIMON CO       CLOUDY    57  40  52 MISG      30.18F
$$

...UNOFFICIAL OBSERVATIONS...

CITY           SKY/WX    TMP DP  RH WIND       PRES   REMARKS
NORTON KS      CLOUDY    59  52  77 N8        30.14
SHARON SPRINGS   N/A     65  49  55 MISG        N/A
KIT CARSON CO    N/A     62  42  48 CALM        N/A
YUMA CO        CLOUDY    55  23  28 E6        30.18F
$$




USA.gov is the U.S. government's official web portal to all federal, state and local government web resources and services.